[[{"header":{"parameterUnit":"m.s-1","parameterCategory":1,"la1":30.2991,"la2":30.254,"lo1":-89.0895,"lo2":-89.0444,"dy":0.0017,"dx":0.0017,"nx":28,"ny":28,"refTime":"2024-12-08T03:00:00:Z","depth":0,"parameterNumber":2,"parameterNumberName":"U-component_of_WINDS"},"data":[0,0,0,0,0,0,0,0,0,0,0,0,0,0,0,0,0,0,0,0,0,0,0,0,0,0,0,0,0,0,0,0,0,0,0,0,0,0,0,0,0,0,0,0,0,0,0,0,0,0,0,0,0,0,0,0,0,0,-1.4794,-1.4795,0,-1.488,-1.4881,-1.4882,-1.4883,-1.4882,-1.4881,-1.488,-1.497,-1.4973,-1.4976,0,0,0,0,0,0,0,0,0,0,0,0,0,-1.4635,-1.4638,-1.4794,-1.4795,-1.4796,-1.4879,-1.4881,-1.4882,-1.4884,-1.4882,-1.4881,-1.488,-1.4969,-1.4973,-1.4977,0,0,0,0,0,0,0,0,0,0,0,0,0,-1.4711,-1.4639,-1.4794,-1.4807,-1.4809,-1.4879,-1.4881,-1.4882,-1.4884,-1.4882,-1.4881,-1.4879,-1.4967,-1.4972,-1.4977,-1.5041,0,0,-1.4993,-1.4995,0,0,0,0,0,0,0,0,-1.4706,-1.4716,-1.4804,-1.4806,-1.4809,-1.4869,-1.4857,-1.4935,-1.4884,-1.4856,-1.488,-1.4878,-1.4938,-1.4945,-1.4965,-1.5045,-1.5049,-1.4993,-1.4996,-1.4998,-1.5,0,0,0,0,0,0,0,-1.4701,-1.4713,-1.4828,-1.4805,-1.4808,-1.481,-1.4819,-1.4872,-1.4905,-1.4858,-1.4858,-1.4868,-1.4939,-1.496,-1.4967,-1.505,-1.4993,-1.4997,-1.5001,-1.5003,-1.5187,-1.5188,0,0,0,0,0,0,-1.4693,-1.4708,-1.4825,-1.4831,-1.4752,-1.4814,-1.4824,-1.4851,-1.4904,-1.491,-1.4869,-1.4868,-1.4952,-1.4961,-1.497,-1.5047,-1.4998,-1.5003,-1.5006,-1.5185,-1.5187,-1.5189,0,0,0,0,0,0,-1.4689,-1.4703,-1.4822,-1.477,-1.4785,-1.4818,-1.4849,-1.4854,-1.4875,-1.4913,-1.4919,-1.4885,-1.4951,-1.4963,-1.5023,-1.505,-1.5005,-1.501,-1.5183,-1.5186,-1.5188,-1.5202,0,0,0,0,0,0,-1.4685,-1.4702,-1.4726,-1.477,-1.4788,-1.4872,-1.4851,-1.4857,-1.4883,-1.4882,-1.4929,-1.4935,-1.4951,-1.5015,-1.5028,-1.5056,-1.5014,-1.518,-1.5184,-1.5187,-1.5199,-1.5205,-1.521,0,0,0,0,0,-1.4679,-1.4727,-1.4727,-1.4741,-1.4818,-1.4874,-1.4884,-1.49,-1.4886,-1.491,-1.4935,-1.4933,-1.5046,-1.5021,-1.5036,-1.5066,-1.5179,-1.5183,-1.5187,-1.5197,-1.5204,-1.521,0,0,0,0,0,0,-1.4685,-1.4733,-1.4733,-1.4796,-1.4831,-1.4874,-1.4905,-1.4907,-1.4947,-1.4945,-1.4964,-1.4975,-1.5034,-1.5057,-1.5029,-1.513,-1.5111,-1.5118,-1.5113,-1.512,-1.5125,-1.5118,-1.5018,0,0,0,0,0,-1.4693,-1.4734,-1.4774,-1.4826,-1.4843,-1.4871,-1.4897,-1.4906,-1.4943,-1.4958,-1.4987,-1.5023,-1.5067,-1.5095,-1.5137,-1.5203,-1.5213,-1.5231,-1.5237,-1.5241,-1.5246,-1.5283,-1.5291,-1.5203,-1.5203,-1.5203,0,0,-1.4711,-1.4743,-1.4767,-1.4828,-1.4856,-1.4898,-1.4884,-1.4929,-1.4961,-1.4965,-1.5023,-1.5046,-1.5088,-1.5151,-1.5181,-1.5172,-1.5273,-1.5246,-1.5249,-1.5252,-1.5288,-1.5296,-1.5303,-1.5206,-1.5205,-1.5205,0,0,-1.4765,-1.4794,-1.4839,-1.4868,-1.491,-1.4929,-1.494,-1.4983,-1.4998,-1.5057,-1.5061,-1.51,-1.5175,-1.5204,-1.5229,-1.5296,-1.5297,-1.531,-1.5337,-1.5372,-1.5379,-1.5385,-1.5408,-1.5416,-1.5316,-1.5316,-1.5316,0,-1.4782,-1.4846,-1.4863,-1.4908,-1.4935,-1.4941,-1.4988,-1.5015,-1.507,-1.5088,-1.5078,-1.5172,-1.5201,-1.527,-1.5287,-1.5307,-1.5321,-1.5303,-1.5376,-1.5383,-1.5389,-1.5411,-1.542,-1.5317,-1.5317,-1.5317,-1.5316,0,-1.4864,-1.4908,-1.4941,-1.4992,-1.5023,-1.5069,-1.5094,-1.5123,-1.5131,-1.5151,-1.5211,-1.5246,-1.5296,-1.5314,-1.5322,-1.5385,-1.5378,-1.5372,-1.5352,-1.5398,-1.5419,-1.5428,-1.5319,-1.5318,-1.5318,-1.5317,0,0,-1.4922,-1.4983,-1.4995,-1.5018,-1.5066,-1.5101,-1.5148,-1.5196,-1.522,-1.5259,-1.5298,-1.5362,-1.5357,-1.5385,-1.5397,-1.5429,-1.5479,-1.5419,-1.542,-1.5427,-1.555,-1.5553,-1.5563,-1.548,-1.5482,-1.5484,-1.5546,0,-1.498,-1.5062,-1.508,-1.5151,-1.5192,-1.5199,-1.524,-1.5275,-1.5296,-1.5334,-1.5358,-1.5402,-1.5392,-1.5409,-1.544,-1.5466,-1.5503,-1.5462,-1.5517,-1.5519,-1.5504,-1.5574,-1.5577,-1.5634,-1.5555,-1.5556,-1.5557,0,-1.5058,-1.5097,-1.5172,-1.5215,-1.5233,-1.5269,-1.5315,-1.5352,-1.5392,-1.5405,-1.5437,-1.5446,-1.5496,-1.5476,-1.5545,-1.5516,-1.5541,-1.5557,-1.556,-1.5564,-1.5539,-1.5579,-1.5653,-1.5661,-1.5571,-1.557,-1.5569,0,-1.5091,-1.5163,-1.5217,-1.5237,-1.5289,-1.5314,-1.5337,-1.5376,-1.5403,-1.5444,-1.5462,-1.5508,-1.5533,-1.5569,-1.5591,-1.5574,-1.5659,-1.564,-1.5671,-1.567,-1.5686,-1.5685,-1.5764,-1.5705,-1.5705,-1.5705,-1.5705,0,-1.5153,-1.5198,-1.5232,-1.5265,-1.5317,-1.5338,-1.5388,-1.5411,-1.5446,-1.5484,-1.5495,-1.553,-1.5558,-1.5598,-1.5616,-1.567,-1.5682,-1.5694,-1.5698,-1.5692,-1.569,-1.5707,-1.5703,-1.5707,-1.5707,-1.5706,-1.5706,0,-1.5197,-1.5222,-1.5281,-1.5325,-1.5338,-1.5374,-1.5412,-1.5445,-1.5467,-1.5515,-1.5528,-1.5562,-1.561,-1.5636,-1.5696,-1.5708,-1.5769,-1.5772,-1.5755,-1.5756,-1.5785,-1.5781,-1.5876,-1.5889,-1.5823,-1.5824,-1.5824,0,-1.5233,-1.5268,-1.5317,-1.5343,-1.5366,-1.5408,-1.5436,-1.5459,-1.5488,-1.5537,-1.5564,-1.5613,-1.5652,-1.5729,-1.576,-1.5806,-1.5809,-1.5839,-1.5816,-1.5809,-1.5808,-1.5805,-1.5808,-1.5842,-1.5843,-1.5844,-1.5844,0,-1.5296,-1.5306,-1.5346,-1.5391,-1.5424,-1.5461,-1.5497,-1.5518,-1.5547,-1.558,-1.5628,-1.5659,-1.5721,-1.5769,-1.5818,-1.5843,-1.5848,-1.5852,-1.5861,-1.5854,-1.5842,-1.5848,-1.5764,-1.5849,-1.5848,-1.5848,-1.5847,-1.5847,-1.5336,-1.5367,-1.5406,-1.5451,-1.548,-1.5514,-1.5547,-1.5573,-1.5613,-1.5664,-1.5676,-1.5728,-1.5768,-1.5835,-1.5861,-1.5902,-1.5896,-1.591,-1.5913,-1.5916,-1.5916,-1.5837,-1.5912,-1.5912,-1.5911,-1.5911,-1.5911,0,-1.5397,-1.5423,-1.5464,-1.5514,-1.5549,-1.5551,-1.5592,-1.5621,-1.5666,-1.5703,-1.5742,-1.5798,-1.5845,-1.588,-1.5928,-1.5955,-1.5958,-1.5966,-1.5964,-1.5969,-1.5919,-1.5906,-1.5962,-1.5962,-1.5962,-1.5962,-1.5962,-1.5962,-1.5433,-1.5486,-1.5502,-1.557,-1.5596,-1.5645,-1.5668,-1.57,-1.5729,-1.5791,-1.583,-1.5852,-1.5889,-1.594,-1.5983,-1.5993,-1.6009,-1.6017,-1.6026,-1.5978,-1.5973,-1.5967,-1.5955,-1.6021,-1.6021,-1.6072,-1.6073,-1.6073]},{"header":{"parameterUnit":"m.s-1","parameterCategory":1,"la1":30.2991,"la2":30.254,"lo1":-89.0895,"lo2":-89.0444,"dy":0.0017,"dx":0.0017,"nx":28,"ny":28,"refTime":"2024-12-08T03:00:00:Z","depth":0,"parameterNumber":3,"parameterNumberName":"V-component_of_WINDS"},"data":[0,0,0,0,0,0,0,0,0,0,0,0,0,0,0,0,0,0,0,0,0,0,0,0,0,0,0,0,0,0,0,0,0,0,0,0,0,0,0,0,0,0,0,0,0,0,0,0,0,0,0,0,0,0,0,0,0,0,2.2006,2.2006,0,2.2041,2.2042,2.2042,2.2048,2.2047,2.2047,2.2047,2.2081,2.2083,2.2084,0,0,0,0,0,0,0,0,0,0,0,0,0,2.1942,2.1943,2.2006,2.2006,2.2007,2.2041,2.2042,2.2042,2.2048,2.2047,2.2047,2.2047,2.2081,2.2082,2.2084,0,0,0,0,0,0,0,0,0,0,0,0,0,2.1973,2.1944,2.2006,2.2014,2.2015,2.2041,2.2042,2.2042,2.2048,2.2047,2.2047,2.2046,2.2081,2.2082,2.2084,2.2105,0,0,2.209,2.209,0,0,0,0,0,0,0,0,2.1971,2.1975,2.2012,2.2013,2.2015,2.204,2.2032,2.2063,2.2048,2.2035,2.2047,2.2046,2.2068,2.2071,2.2078,2.2106,2.2108,2.209,2.2091,2.2092,2.2092,0,0,0,0,0,0,0,2.1969,2.1974,2.202,2.2013,2.2014,2.2015,2.2019,2.2038,2.2054,2.2036,2.2037,2.2041,2.2068,2.2076,2.2079,2.2108,2.209,2.2091,2.2093,2.2093,2.2156,2.2156,0,0,0,0,0,0,2.1966,2.1972,2.2019,2.2021,2.1991,2.2017,2.2021,2.2032,2.2053,2.2056,2.2041,2.2041,2.2074,2.2077,2.208,2.2107,2.2092,2.2093,2.2094,2.2155,2.2156,2.2156,0,0,0,0,0,0,2.1964,2.197,2.2017,2.1997,2.2003,2.2018,2.2031,2.2033,2.2041,2.2057,2.206,2.2047,2.2073,2.2078,2.2099,2.2108,2.2094,2.2096,2.2154,2.2155,2.2156,2.2159,0,0,0,0,0,0,2.1962,2.1969,2.1977,2.1997,2.2004,2.2036,2.2031,2.2034,2.2044,2.2045,2.2063,2.2066,2.2073,2.2096,2.2101,2.211,2.2097,2.2154,2.2155,2.2156,2.2158,2.216,2.2161,0,0,0,0,0,2.196,2.1976,2.1978,2.1984,2.2015,2.2036,2.204,2.2049,2.2045,2.2054,2.2064,2.2065,2.2106,2.2098,2.2103,2.2114,2.2153,2.2154,2.2156,2.2158,2.216,2.2161,0,0,0,0,0,0,2.1957,2.1979,2.1981,2.2004,2.2018,2.2037,2.2048,2.2051,2.2066,2.2065,2.2075,2.2079,2.21,2.2109,2.21,2.2135,2.2129,2.2132,2.2129,2.2131,2.2132,2.213,2.2099,0,0,0,0,0,2.1959,2.1976,2.1994,2.2012,2.2019,2.2033,2.2042,2.2048,2.2063,2.2069,2.2081,2.2095,2.2111,2.2121,2.2137,2.2159,2.2164,2.2169,2.217,2.2171,2.2174,2.2187,2.219,2.2161,2.2161,2.2161,0,0,2.1964,2.1978,2.1988,2.2012,2.2024,2.204,2.2038,2.2055,2.2067,2.2071,2.2092,2.2101,2.2118,2.214,2.215,2.2148,2.2183,2.2173,2.2174,2.2176,2.2189,2.2191,2.2194,2.2161,2.2161,2.2161,0,0,2.1981,2.1993,2.2011,2.2022,2.204,2.2049,2.2053,2.2071,2.2078,2.2099,2.2103,2.2117,2.2144,2.2156,2.2165,2.2187,2.2189,2.2191,2.22,2.2213,2.2215,2.2217,2.2226,2.2229,2.2193,2.2193,2.2193,0,2.1985,2.201,2.2019,2.2037,2.2048,2.2052,2.207,2.2081,2.2102,2.211,2.2107,2.2141,2.2152,2.2178,2.2183,2.219,2.2196,2.219,2.2214,2.2216,2.2219,2.2227,2.223,2.2194,2.2194,2.2194,2.2194,0,2.2014,2.2031,2.2043,2.2065,2.2077,2.2095,2.2106,2.2117,2.2121,2.213,2.2152,2.2165,2.2184,2.219,2.2194,2.2216,2.2214,2.2212,2.2207,2.2222,2.223,2.2233,2.2194,2.2194,2.2194,2.2194,0,0,2.2031,2.2058,2.2062,2.2073,2.2092,2.2106,2.2123,2.2142,2.2152,2.2166,2.2182,2.2205,2.2203,2.2214,2.2219,2.223,2.2248,2.2228,2.2228,2.2232,2.2274,2.2276,2.228,2.2249,2.2249,2.225,2.2273,0,2.2052,2.2084,2.2093,2.212,2.2137,2.2141,2.2156,2.217,2.2178,2.2193,2.2202,2.2219,2.2215,2.2222,2.2233,2.2243,2.2257,2.2242,2.2263,2.2264,2.2261,2.2284,2.2286,2.2307,2.2276,2.2277,2.2277,0,2.208,2.2097,2.2126,2.2144,2.2151,2.2165,2.2183,2.2197,2.2213,2.2218,2.223,2.2235,2.2253,2.2245,2.2271,2.2261,2.227,2.2276,2.2277,2.228,2.2272,2.2289,2.2314,2.2318,2.2282,2.2281,2.2281,0,2.2092,2.212,2.2142,2.215,2.2172,2.2182,2.2191,2.2206,2.2217,2.2232,2.224,2.2257,2.2266,2.2279,2.2288,2.2282,2.2313,2.2306,2.2318,2.2318,2.2326,2.2325,2.2354,2.2329,2.2329,2.2329,2.2329,0,2.2115,2.2133,2.2148,2.2161,2.2181,2.219,2.221,2.2219,2.2233,2.2248,2.2251,2.2265,2.2275,2.229,2.2297,2.2318,2.2321,2.2326,2.2328,2.2327,2.2327,2.2334,2.2333,2.233,2.233,2.233,2.233,0,2.2132,2.2142,2.2166,2.2184,2.2189,2.2204,2.2219,2.2232,2.2241,2.226,2.2265,2.2278,2.2296,2.2305,2.2327,2.2332,2.2355,2.2356,2.2351,2.2352,2.2364,2.2363,2.24,2.2405,2.2375,2.2376,2.2376,0,2.2146,2.216,2.218,2.2191,2.2201,2.2218,2.2229,2.2238,2.225,2.2268,2.2279,2.2298,2.2313,2.2342,2.2353,2.237,2.2372,2.2383,2.2374,2.2373,2.2373,2.2373,2.2375,2.2385,2.2385,2.2386,2.2386,0,2.2172,2.2176,2.2193,2.2211,2.2225,2.2239,2.2254,2.2262,2.2274,2.2286,2.2305,2.2317,2.234,2.2359,2.2377,2.2386,2.2388,2.2388,2.2392,2.2392,2.2389,2.2392,2.2356,2.2388,2.2388,2.2387,2.2387,2.2387,2.2189,2.2202,2.2218,2.2237,2.2248,2.2262,2.2276,2.2286,2.2302,2.2322,2.2326,2.2346,2.2361,2.2385,2.2395,2.2411,2.2408,2.2414,2.2415,2.2417,2.2418,2.2385,2.2414,2.2414,2.2414,2.2414,2.2414,0,2.2215,2.2226,2.2243,2.2264,2.2278,2.2278,2.2295,2.2307,2.2325,2.2339,2.2354,2.2376,2.2393,2.2406,2.2424,2.2434,2.2436,2.2439,2.2439,2.2441,2.2419,2.2414,2.2437,2.2437,2.2437,2.2437,2.2437,2.2437,2.2231,2.2254,2.226,2.2289,2.2299,2.2319,2.2329,2.2341,2.2352,2.2377,2.2392,2.24,2.2413,2.2433,2.2449,2.2452,2.2459,2.2462,2.2466,2.2445,2.2442,2.244,2.2436,2.2463,2.2463,2.2487,2.2487,2.2487]}]]